Погода в Себяне-Кюеле

Россия / Республика Саха (Якутия)     65°17′17″N   130°00′30″E
темп.,
°C
ветер,
м/с
пор.,
м/с
влажн.,
%
обл.,
%
осадки,
мм/ч
давл.,
гПа
погр.,
м
3 марта, ср
ср300:00−33ссв1299100 0.0 102324
03:00−33ссв22100100 0.1 102221
06:00−32ссв12100100 0.1 102122
09:00−31ссв2299100 0.3 102090
12:00−30ссв1294100 0.2 1018213
15:00−29всв1293100 0.4 1016300
18:00−31всв11100100 0.1 101719
21:00−32св11100100 0.2 101619
4 марта, чт
чт400:00−33всв11100100 0.1 101619
03:00−34св11100100 0.1 101619
06:00−35св1199100 0.1 101723
09:00−35св1198100 0.1 1017115
12:00−34св2491100 0.1 1018470
15:00−33св2489100 0.1 1019579
18:00−37св11100100 0.1 102319
21:00−37сз11100100 0.1 102419
5 марта, пт
пт500:00−37сз1297100 0.0 102419
03:00−37зсз1296100 0.1 102519
06:00−37зсз1196100 0.0 102519
09:00−35зсз119192 0.0 102519
12:00−30сз118482 0.0 1024112
15:00−29ссз118863 0.0 102367
18:00−35ссз119937 0.0 102519
21:00−35зсз119630 0.0 102619
6 марта, сб
сб600:00−35сз119631 0.0 102519
03:00−34сз119554 0.0 102519
06:00−32ссз1193100 0.0 102519
09:00−31с1194100 0.0 102519
12:00−27с119097 0.0 1024147
15:00−26св119296 0.0 1023127
18:00−32ссз1110085 0.0 102419
21:00−34ссз1110071 0.0 102519
7 марта, вс
вс700:00−34зсз1110063 0.0 102419
03:00−34сз0110055 0.0 102419
06:00−34сз0110053 0.0 102419
09:00−30сз119464 0.0 102319
12:00−25ссв118896 0.0 1021101
15:00−24всв119197 0.0 102158
18:00−30св0010098 0.0 102119
21:00−30з009398 0.0 102119